[ hide orbit diagram ]
For accurate long-term ephemerides, please instead use our Horizons system.This orbit viewer was implemented using two-body methods, and hence should not be used for determining accurate long-term trajectories (over several years or decades) or planetary encounter circumstances.
Orbital Elements at Epoch 2459200.5 (2020-Dec-17.0) TDB
Reference: JPL 17 (heliocentric ecliptic J2000)
Element | Value | Uncertainty (1-sigma) | Units |
e | .1015081295741406 | 4.4031e-08 | |
a | 2.243699656151143 | 1.4311e-08 | au |
q | 2.015945900729098 | 1.0731e-07 | au |
i | .9897608500995317 | 5.8394e-06 | deg |
node | 3.437616975291355 | 0.00023851 | deg |
peri | 286.7712531829211 | 0.00024137 | deg |
M | 6.184199602019855 | 3.3212e-05 | deg |
tp | 2459179.412431484453 (2020-Nov-25.91243148) | 0.00011332 | TDB |
period | 1227.567859083536 3.36 | 1.1744e-05 3.215e-08 | d yr |
n | .2932628101462063 | 2.8057e-09 | deg/d |
Q | 2.471453411573188 | 1.5763e-08 | au |
|
| | Orbit Determination Parameters
Additional Information
|
[ show covariance matrix ]
Physical Parameter Table
Parameter |
Symbol |
Value |
Units |
Sigma |
Reference |
Notes |
absolute magnitude |
H |
17.81 |
|
n/a |
E2021B25 |
|
|
390366 (2013 GD76) Discovered 2003-Mar-10 by Spacewatch at Kitt Peak |
Reference: | Last Updated: 2014-03-21 |
|
Alternate Designations
2013 GD76 = 2004 TN27 = 2006 CP78 |
|
|